Location: Hepcat Sky Observatory
(29.9800°N, 95.6500°W)
Time: 20:39:36
(UTC-05:00)

Cosmos 2366 rocket - Visible Passes

Search period start: 22 July 2014 00:00
Search period end: 01 August 2014 00:00
Orbit: 955 x 998 km, 82.9° (Epoch: 22 July)

Date Brightness Start Highest point End Pass type
(mag) Time Alt. Az. Time Alt. Az. Time Alt. Az.
22 Jul 6.1 00:40:43 10° NW 00:43:38 16° WNW 00:43:38 16° WNW visible
22 Jul 5.9 21:37:39 10° ENE 21:39:07 11° ENE 21:39:57 11° E visible
22 Jul 4.0 23:18:55 10° N 23:24:39 73° NW 23:24:39 73° NW visible
23 Jul 5.1 22:00:25 10° NNE 22:05:12 23° ENE 22:05:40 23° E visible
23 Jul 5.0 23:45:00 10° NNW 23:50:22 38° W 23:50:22 38° W visible
24 Jul 4.2 22:25:12 10° N 22:31:05 46° E 22:31:25 46° E visible
25 Jul 5.9 00:11:54 10° NW 00:15:58 19° W 00:16:06 19° W visible
25 Jul 3.8 22:50:37 10° N 22:56:48 89° W 22:57:10 80° S visible
26 Jul 5.3 21:32:30 10° NNE 21:36:50 20° ENE 21:38:16 18° E visible
26 Jul 4.7 23:16:34 10° NNW 23:22:21 45° W 23:22:58 43° WSW visible
27 Jul 4.5 21:57:03 10° NNE 22:02:45 39° E 22:04:04 35° ESE visible
27 Jul 5.7 23:43:13 10° NW 23:47:46 22° W 23:48:46 21° W visible
28 Jul 3.8 22:22:21 10° N 22:28:30 79° E 22:29:54 55° SSE visible
29 Jul 5.5 21:04:41 10° NE 21:08:27 17° ENE 21:11:04 13° ESE visible
29 Jul 4.5 22:48:10 10° NNW 22:54:06 53° W 22:55:46 41° SW visible
30 Jul 4.7 21:28:56 10° NNE 21:34:25 33° E 21:36:58 24° ESE visible
30 Jul 5.6 23:14:37 10° NNW 23:19:33 26° W 23:21:40 21° WSW visible
31 Jul 3.9 21:54:06 10° N 22:00:12 67° E 22:02:54 34° SSE visible
31 Jul 6.4 23:42:33 10° WNW 23:44:50 12° W 23:47:08 10° WSW visible
